Project,Study,Ord_Occ,Event_Num,Cast_ID,Date_Time_UTC,Date_Time_PST,Lat_Dec,Lon_Dec,Sta_ID,Line,Sta,Depth,Pressure,PrQ,Temp1,Temp1Q,Temp2,Temp2Q,TempAve,Salt1,Salt1Q,Salt1_Corr,Salt2,Salt2Q,Salt2_Corr,SaltAve_Corr,Ox1,Ox1Q,Ox1_CruiseCorr,Ox1_StaCorr,Ox2,Ox2Q,Ox2_CruiseCorr,Ox2_StaCorr,OxAve_StaCorr,Ox1uM,Ox1uM_CruiseCorr,Ox1uM_StaCorr,Ox2uM,Ox2uM_CruiseCorr,Ox2uM_StaCorr,OxAveuM_StaCorr,FluorV,FluorQ,EstChl_CruiseCorr,EstChl_StaCorr,ISUSV,ISUSQ,EstNO3_CruiseCorr,EstNO3_StaCorr,SigThetaTS1,SigThetaTS1Q,SigThetaTS2,SigThetaTS2Q,BAT,XMiss,TransQ,pH,pHQ,SPAR,SPARQ,PAR,PARQ,PoT1,PoT2,DynHt,SVA,OxSat1,OxSat2,BTL_Depth,BTL_Temp,SaltB,OxB,OxBuM,Chl-a,Phaeo,NO3,NO2,NH4,PO4,SIL
CalCOFI,2101RL,040,,2101_040u,24-Jan-2021 10:26:11,24-Jan-2021 02:26:11,32.98764,-120.34962,086.7 060.0,086.7,060.0,521.000,525.365,,5.6649,,5.6643,,5.6646,34.3059,,34.3117,34.3016,,34.3036,34.3077,0.2538,,0.2655,0.2959,0.2548,,0.2686,0.2990,0.2975,11.034,11.8106,12.9657,11.079,12.7224,13.1010,13.0334,0.0330,,,, ,, , ,27.0514,,27.0481,,0.7054,83.8319,,,,3.6947E+00,,1.0000E-12,,5.6205,5.6199,0.8969,106.898,3.627,3.642,,,,,,,,,,,,
CalCOFI,2101RL,040,,2101_040u,24-Jan-2021 10:26:12,24-Jan-2021 02:26:12,32.98764,-120.34962,086.7 060.0,086.7,060.0,520.000,524.355,,5.6630,,5.6633,,5.6632,34.3041,,34.3099,34.3011,,34.3031,34.3065,0.2551,,0.2669,0.2972,0.2605,,0.2747,0.3051,0.3012,11.090,11.8692,13.0247,11.328,12.7847,13.3673,13.1960,0.0331,,,, ,, , ,27.0502,,27.0477,,0.7056,83.8275,,,,3.6947E+00,,1.0000E-12,,5.6186,5.6189,0.8969,107.002,3.646,3.724,,,,,,,,,,,,
CalCOFI,2101RL,040,,2101_040u,24-Jan-2021 10:26:13,24-Jan-2021 02:26:13,32.98764,-120.34962,086.7 060.0,086.7,060.0,519.000,523.346,,5.6617,,5.6621,,5.6619,34.3021,,34.3079,34.2987,,34.3007,34.3043,0.2564,,0.2682,0.2986,0.2592,,0.2733,0.3037,0.3012,11.150,11.9320,13.0879,11.271,12.8514,13.3063,13.1971,0.0331,,,, ,, , ,27.0487,,27.0460,,0.7064,83.8101,,,,3.6947E+00,,1.0000E-12,,5.6174,5.6178,0.8969,107.119,3.665,3.705,,,,,,,,,,,,
CalCOFI,2101RL,040,,2101_040u,24-Jan-2021 10:26:14,24-Jan-2021 02:26:14,32.98765,-120.34961,086.7 060.0,086.7,060.0,518.000,522.336,,5.6615,,5.6617,,5.6616,34.3021,,34.3079,34.2985,,34.3005,34.3042,0.2597,,0.2717,0.3021,0.2676,,0.2822,0.3126,0.3074,11.295,12.0838,13.2405,11.634,13.0126,13.6946,13.4676,0.0330,,,, ,, , ,27.0488,,27.0459,,0.7056,83.8275,,,,3.6947E+00,,1.0000E-12,,5.6173,5.6175,0.8969,107.101,3.713,3.824,,,,,,,,,,,,
CalCOFI,2101RL,040,,2101_040u,24-Jan-2021 10:26:19,24-Jan-2021 02:26:19,32.98766,-120.34961,086.7 060.0,086.7,060.0,517.000,521.326,,5.6656,,5.6650,,5.6653,34.3015,,34.3073,34.2982,,34.3002,34.3038,0.2559,,0.2677,0.2981,0.2611,,0.2753,0.3057,0.3019,11.125,11.9059,13.0615,11.355,12.8236,13.3962,13.2289,0.0330,,,, ,, , ,27.0477,,27.0453,,0.7063,83.8136,,,,3.6947E+00,,1.0000E-12,,5.6215,5.6209,0.8975,107.190,3.657,3.733,517,,34.2832,0.258,11.26,,,,,,,
CalCOFI,2101RL,040,,2101_040u,24-Jan-2021 10:26:44,24-Jan-2021 02:26:44,32.98767,-120.34965,086.7 060.0,086.7,060.0,516.000,520.317,,5.6723,,5.6734,,5.6729,34.3009,,34.3067,34.2978,,34.2998,34.3033,0.2580,,0.2699,0.3003,0.2616,,0.2758,0.3062,0.3033,11.219,12.0042,13.1605,11.376,12.9281,13.4186,13.2896,0.0323,,,, ,, , ,27.0465,,27.0438,,0.7058,83.8234,,,,3.6947E+00,,1.0000E-12,,5.6283,5.6294,0.9032,107.305,3.689,3.740,,,,,,,,,,,,
CalCOFI,2101RL,040,,2101_040u,24-Jan-2021 10:27:10,24-Jan-2021 02:27:10,32.98768,-120.34968,086.7 060.0,086.7,060.0,515.000,519.307,,5.6745,,5.6714,,5.6730,34.3000,,34.3058,34.2973,,34.2993,34.3026,0.2584,,0.2703,0.3007,0.2616,,0.2758,0.3062,0.3035,11.236,12.0220,13.1784,11.377,12.9470,13.4197,13.2991,0.0329,,,, ,, , ,27.0454,,27.0437,,0.7055,83.8304,,,,3.6947E+00,,1.0000E-12,,5.6305,5.6275,0.9090,107.391,3.694,3.740,,,,,,,,,,,,
CalCOFI,2101RL,040,,2101_040u,24-Jan-2021 10:27:11,24-Jan-2021 02:27:11,32.98768,-120.34970,086.7 060.0,086.7,060.0,514.000,518.298,,5.6737,,5.6749,,5.6743,34.2986,,34.3044,34.2958,,34.2978,34.3011,0.2656,,0.2779,0.3083,0.2647,,0.2791,0.3095,0.3089,11.551,12.3518,13.5100,11.511,13.2973,13.5630,13.5365,0.0324,,,, ,, , ,27.0445,,27.0421,,0.7058,83.8232,,,,3.6947E+00,,1.0000E-12,,5.6299,5.6310,0.9088,107.468,3.798,3.785,,,,,,,,,,,,
CalCOFI,2101RL,040,,2101_040u,24-Jan-2021 10:27:12,24-Jan-2021 02:27:12,32.98768,-120.34970,086.7 060.0,086.7,060.0,513.000,517.288,,5.6746,,5.6761,,5.6754,34.2979,,34.3037,34.2951,,34.2971,34.3004,0.2626,,0.2747,0.3051,0.2712,,0.2860,0.3165,0.3108,11.418,12.2126,13.3700,11.793,13.1494,13.8646,13.6173,0.0325,,,, ,, , ,27.0438,,27.0414,,0.7056,83.8282,,,,3.6947E+00,,1.0000E-12,,5.6308,5.6323,0.9088,107.520,3.754,3.878,,,,,,,,,,,,
CalCOFI,2101RL,040,,2101_040u,24-Jan-2021 10:27:13,24-Jan-2021 02:27:13,32.98767,-120.34970,086.7 060.0,086.7,060.0,512.000,516.278,,5.6806,,5.6964,,5.6885,34.2979,,34.3037,34.2952,,34.2972,34.3005,0.2609,,0.2730,0.3033,0.2729,,0.2878,0.3183,0.3108,11.344,12.1351,13.2921,11.865,13.0671,13.9416,13.6169,0.0324,,,, ,, , ,27.0430,,27.0390,,0.7055,83.8301,,,,3.6947E+00,,1.0000E-12,,5.6369,5.6526,0.9088,107.587,3.730,3.903,,,,,,,,,,,,
CalCOFI,2101RL,040,,2101_040u,24-Jan-2021 10:27:14,24-Jan-2021 02:27:14,32.98766,-120.34970,086.7 060.0,086.7,060.0,511.000,515.269,,5.7050,,5.7206,,5.7128,34.2990,,34.3048,34.2959,,34.2979,34.3014,0.2625,,0.2746,0.3050,0.2688,,0.2835,0.3139,0.3095,11.414,12.2084,13.3658,11.687,13.1450,13.7512,13.5585,0.0330,,,, ,, , ,27.0409,,27.0365,,0.7060,83.8196,,,,3.6947E+00,,1.0000E-12,,5.6613,5.6768,0.9088,107.805,3.756,3.847,,,,,,,,,,,,
CalCOFI,2101RL,040,,2101_040u,24-Jan-2021 10:27:15,24-Jan-2021 02:27:15,32.98766,-120.34970,086.7 060.0,086.7,060.0,510.000,514.259,,5.7132,,5.7338,,5.7235,34.2989,,34.3047,34.2956,,34.2976,34.3012,0.2625,,0.2746,0.3050,0.2720,,0.2869,0.3173,0.3112,11.417,12.2115,13.3690,11.830,13.1483,13.9042,13.6366,0.0321,,,, ,, , ,27.0398,,27.0347,,0.7059,83.8218,,,,3.6947E+00,,1.0000E-12,,5.6695,5.6901,0.9088,107.900,3.757,3.895,,,,,,,,,,,,
CalCOFI,2101RL,040,,2101_040u,24-Jan-2021 10:27:16,24-Jan-2021 02:27:16,32.98766,-120.34970,086.7 060.0,086.7,060.0,509.000,513.250,,5.7317,,5.7381,,5.7349,34.2981,,34.3039,34.2950,,34.2970,34.3005,0.2655,,0.2778,0.3082,0.2622,,0.2765,0.3069,0.3076,11.547,12.3476,13.5058,11.403,13.2929,13.4475,13.4767,0.0323,,,, ,, , ,27.0369,,27.0337,,0.7066,83.8066,,,,3.6947E+00,,1.0000E-12,,5.6880,5.6944,0.9088,108.182,3.802,3.755,,,,,,,,,,,,
CalCOFI,2101RL,040,,2101_040u,24-Jan-2021 10:27:17,24-Jan-2021 02:27:17,32.98766,-120.34970,086.7 060.0,086.7,060.0,508.000,512.240,,5.7404,,5.7712,,5.7558,34.2988,,34.3046,34.2972,,34.2992,34.3019,0.2651,,0.2774,0.3078,0.2650,,0.2795,0.3099,0.3089,11.527,12.3267,13.4848,11.522,13.2706,13.5748,13.5298,0.0333,,,, ,, , ,27.0364,,27.0313,,0.7056,83.8280,,,,3.6947E+00,,1.0000E-12,,5.6968,5.7275,0.9088,108.230,3.796,3.797,,,,,,,,,,,,
CalCOFI,2101RL,040,,2101_040u,24-Jan-2021 10:27:18,24-Jan-2021 02:27:18,32.98766,-120.34970,086.7 060.0,086.7,060.0,507.000,511.230,,5.7885,,5.8066,,5.7976,34.3005,,34.3063,34.2984,,34.3004,34.3034,0.2672,,0.2796,0.3100,0.2655,,0.2800,0.3104,0.3102,11.619,12.4230,13.5816,11.546,13.3729,13.6004,13.5910,0.0327,,,, ,, , ,27.0318,,27.0279,,0.7055,83.8301,,,,3.6947E+00,,1.0000E-12,,5.7448,5.7629,0.9088,108.706,3.831,3.808,,,,,,,,,,,,
CalCOFI,2101RL,040,,2101_040u,24-Jan-2021 10:27:19,24-Jan-2021 02:27:19,32.98766,-120.34970,086.7 060.0,086.7,060.0,506.000,510.221,,5.8022,,5.8015,,5.8019,34.3010,,34.3068,34.2979,,34.2999,34.3034,0.2657,,0.2780,0.3084,0.2655,,0.2800,0.3104,0.3094,11.553,12.3539,13.5121,11.546,13.2995,13.6004,13.5563,0.0339,,,, ,, , ,27.0305,,27.0281,,0.7055,83.8301,,,,3.6947E+00,,1.0000E-12,,5.7586,5.7578,0.9088,108.835,3.810,3.808,,,,,,,,,,,,
CalCOFI,2101RL,040,,2101_040u,24-Jan-2021 10:27:20,24-Jan-2021 02:27:20,32.98766,-120.34970,086.7 060.0,086.7,060.0,505.000,509.211,,5.8201,,5.8298,,5.8250,34.3015,,34.3073,34.2988,,34.3008,34.3041,0.2645,,0.2767,0.3071,0.2682,,0.2829,0.3133,0.3102,11.504,12.3026,13.4606,11.662,13.2450,13.7245,13.5926,0.0326,,,, ,, , ,27.0287,,27.0254,,0.7055,83.8301,,,,3.6947E+00,,1.0000E-12,,5.7764,5.7861,0.9088,109.012,3.795,3.848,,,,,,,,,,,,
CalCOFI,2101RL,040,,2101_040u,24-Jan-2021 10:27:21,24-Jan-2021 02:27:21,32.98766,-120.34970,086.7 060.0,086.7,060.0,504.000,508.202,,5.8226,,5.8396,,5.8311,34.3017,,34.3075,34.2991,,34.3011,34.3043,0.2645,,0.2767,0.3071,0.2715,,0.2864,0.3168,0.3120,11.501,12.2994,13.4574,11.804,13.2417,13.8764,13.6669,0.0328,,,, ,, , ,27.0285,,27.0243,,0.7055,83.8301,,,,3.6947E+00,,1.0000E-12,,5.7790,5.7960,0.9088,109.015,3.795,3.896,,,,,,,,,,,,
CalCOFI,2101RL,040,,2101_040u,24-Jan-2021 10:27:22,24-Jan-2021 02:27:22,32.98766,-120.34970,086.7 060.0,086.7,060.0,503.000,507.192,,5.8344,,5.8383,,5.8364,34.3016,,34.3074,34.2983,,34.3003,34.3039,0.2644,,0.2766,0.3070,0.2639,,0.2783,0.3087,0.3079,11.496,12.2942,13.4521,11.476,13.2361,13.5256,13.4889,0.0334,,,, ,, , ,27.0270,,27.0239,,0.7055,83.8301,,,,3.6947E+00,,1.0000E-12,,5.7909,5.7948,0.9088,109.165,3.794,3.788,,,,,,,,,,,,
CalCOFI,2101RL,040,,2101_040u,24-Jan-2021 10:27:23,24-Jan-2021 02:27:23,32.98766,-120.34970,086.7 060.0,086.7,060.0,502.000,506.182,,5.8658,,5.8723,,5.8691,34.3058,,34.3116,34.3014,,34.3034,34.3075,0.2641,,0.2763,0.3067,0.2744,,0.2894,0.3199,0.3133,11.485,12.2827,13.4406,11.932,13.2239,14.0133,13.7270,0.0336,,,, ,, , ,27.0264,,27.0221,,0.7055,83.8301,,,,3.6947E+00,,1.0000E-12,,5.8223,5.8287,0.9088,109.244,3.794,3.942,,,,,,,,,,,,
CalCOFI,2101RL,040,,2101_040u,24-Jan-2021 10:27:24,24-Jan-2021 02:27:24,32.98766,-120.34968,086.7 060.0,086.7,060.0,501.000,505.173,,5.9048,,5.9229,,5.9139,34.3060,,34.3118,34.3044,,34.3064,34.3091,0.2638,,0.2760,0.3064,0.2757,,0.2908,0.3213,0.3139,11.472,12.2691,13.4269,11.991,13.2095,14.0764,13.7517,0.0338,,,, ,, , ,27.0217,,27.0182,,0.7055,83.8301,,,,3.6947E+00,,1.0000E-12,,5.8612,5.8792,0.9088,109.724,3.793,3.966,,,,,,,,,,,,
CalCOFI,2101RL,040,,2101_040u,24-Jan-2021 10:27:25,24-Jan-2021 02:27:25,32.98766,-120.34968,086.7 060.0,086.7,060.0,500.000,504.163,,5.9196,,5.9298,,5.9247,34.3074,,34.3132,34.3032,,34.3052,34.3092,0.2639,,0.2761,0.3065,0.2686,,0.2833,0.3137,0.3101,11.476,12.2733,13.4311,11.678,13.2139,13.7416,13.5864,0.0324,,,, ,, , ,27.0210,,27.0164,,0.7055,83.8301,,,,3.6947E+00,,1.0000E-12,,5.8760,5.8862,0.9088,109.793,3.795,3.863,,,,,,,,,,,,
CalCOFI,2101RL,040,,2101_040u,24-Jan-2021 10:27:26,24-Jan-2021 02:27:26,32.98766,-120.34968,086.7 060.0,086.7,060.0,499.000,503.154,,5.9257,,5.9287,,5.9272,34.3063,,34.3121,34.3011,,34.3031,34.3076,0.2642,,0.2764,0.3068,0.2606,,0.2748,0.3052,0.3060,11.487,12.2848,13.4427,11.335,13.2261,13.3748,13.4088,0.0334,,,, ,, , ,27.0193,,27.0148,,0.7055,83.8301,,,,3.6947E+00,,1.0000E-12,,5.8822,5.8851,0.9088,109.941,3.799,3.749,,,,,,,,,,,,
CalCOFI,2101RL,040,,2101_040u,24-Jan-2021 10:27:26,24-Jan-2021 02:27:26,32.98767,-120.34968,086.7 060.0,086.7,060.0,498.000,502.144,,5.9226,,5.9263,,5.9245,34.3037,,34.3095,34.2987,,34.3007,34.3051,0.2634,,0.2756,0.3060,0.2691,,0.2838,0.3142,0.3101,11.454,12.2502,13.4079,11.703,13.1894,13.7684,13.5882,0.0330,,,, ,, , ,27.0176,,27.0132,,0.7055,83.8301,,,,3.6947E+00,,1.0000E-12,,5.8792,5.8829,0.9088,110.087,3.788,3.871,,,,,,,,,,,,
CalCOFI,2101RL,040,,2101_040u,24-Jan-2021 10:27:29,24-Jan-2021 02:27:29,32.98768,-120.34968,086.7 060.0,086.7,060.0,497.000,501.135,,5.9137,,5.9148,,5.9143,34.3053,,34.3111,34.3012,,34.3032,34.3072,0.2678,,0.2802,0.3106,0.2704,,0.2852,0.3156,0.3131,11.646,12.4512,13.6101,11.760,13.4029,13.8293,13.7197,0.0328,,,, ,, , ,27.0200,,27.0166,,0.7055,83.8301,,,,3.6947E+00,,1.0000E-12,,5.8704,5.8715,0.9088,109.834,3.851,3.889,,,,,,,,,,,,
CalCOFI,2101RL,040,,2101_040u,24-Jan-2021 10:27:30,24-Jan-2021 02:27:30,32.98768,-120.34968,086.7 060.0,086.7,060.0,496.000,500.125,,5.9287,,5.9210,,5.9249,34.3038,,34.3096,34.3012,,34.3032,34.3064,0.2694,,0.2819,0.3123,0.2694,,0.2841,0.3146,0.3135,11.712,12.5203,13.6795,11.714,13.4763,13.7801,13.7298,0.0335,,,, ,, , ,27.0169,,27.0158,,0.7055,83.8301,,,,3.6947E+00,,1.0000E-12,,5.8855,5.8777,0.9088,110.131,3.874,3.874,,,,,,,,,,,,
CalCOFI,2101RL,040,,2101_040u,24-Jan-2021 10:27:31,24-Jan-2021 02:27:31,32.98768,-120.34968,086.7 060.0,086.7,060.0,495.000,499.116,,5.9452,,5.9424,,5.9438,34.3033,,34.3091,34.3008,,34.3028,34.3060,0.2731,,0.2857,0.3162,0.2698,,0.2846,0.3150,0.3156,11.877,12.6930,13.8533,11.735,13.6598,13.8026,13.8280,0.0337,,,, ,, , ,27.0145,,27.0128,,0.7055,83.8301,,,,3.6947E+00,,1.0000E-12,,5.9020,5.8991,0.9088,110.364,3.930,3.883,,,,,,,,,,,,
CalCOFI,2101RL,040,,2101_040u,24-Jan-2021 10:27:32,24-Jan-2021 02:27:32,32.98768,-120.34968,086.7 060.0,086.7,060.0,494.000,498.106,,5.9815,,5.9929,,5.9872,34.3061,,34.3119,34.3033,,34.3053,34.3086,0.2767,,0.2895,0.3200,0.2765,,0.2917,0.3221,0.3211,12.035,12.8584,14.0196,12.024,13.8355,14.1117,14.0657,0.0328,,,, ,, , ,27.0122,,27.0085,,0.7057,83.8267,,,,3.6947E+00,,1.0000E-12,,5.9382,5.9496,0.9088,110.614,3.986,3.983,,,,,,,,,,,,
CalCOFI,2101RL,040,,2101_040u,24-Jan-2021 10:27:32,24-Jan-2021 02:27:32,32.98768,-120.34968,086.7 060.0,086.7,060.0,493.000,497.097,,5.9944,,6.0081,,6.0013,34.3065,,34.3123,34.3033,,34.3053,34.3088,0.2723,,0.2849,0.3153,0.2766,,0.2918,0.3223,0.3188,11.840,12.6543,13.8143,12.030,13.6187,14.1181,13.9662,0.0326,,,, ,, , ,27.0108,,27.0066,,0.7058,83.8239,,,,3.6947E+00,,1.0000E-12,,5.9511,5.9648,0.9088,110.740,3.922,3.987,,,,,,,,,,,,
CalCOFI,2101RL,040,,2101_040u,24-Jan-2021 10:27:33,24-Jan-2021 02:27:33,32.98768,-120.34968,086.7 060.0,086.7,060.0,492.000,496.087,,6.0135,,6.0191,,6.0163,34.3045,,34.3103,34.3009,,34.3029,34.3066,0.2702,,0.2827,0.3131,0.2754,,0.2905,0.3210,0.3171,11.752,12.5622,13.7217,11.975,13.5208,14.0593,13.8905,0.0329,,,, ,, , ,27.0068,,27.0032,,0.7055,83.8298,,,,3.6947E+00,,1.0000E-12,,5.9703,5.9759,0.9088,111.126,3.895,3.969,,,,,,,,,,,,
CalCOFI,2101RL,040,,2101_040u,24-Jan-2021 10:27:34,24-Jan-2021 02:27:34,32.98770,-120.34968,086.7 060.0,086.7,060.0,491.000,495.078,,6.0166,,6.0163,,6.0165,34.3029,,34.3087,34.3007,,34.3027,34.3057,0.2701,,0.2826,0.3130,0.2795,,0.2949,0.3254,0.3192,11.747,12.5570,13.7164,12.152,13.5153,14.2486,13.9825,0.0320,,,, ,, , ,27.0052,,27.0035,,0.7055,83.8301,,,,3.6947E+00,,1.0000E-12,,5.9734,5.9732,0.9088,111.271,3.893,4.028,,,,,,,,,,,,
CalCOFI,2101RL,040,,2101_040u,24-Jan-2021 10:27:36,24-Jan-2021 02:27:36,32.98770,-120.34968,086.7 060.0,086.7,060.0,490.000,494.068,,5.9966,,6.0009,,5.9988,34.3055,,34.3113,34.3027,,34.3047,34.3080,0.2708,,0.2833,0.3138,0.2712,,0.2860,0.3165,0.3152,11.776,12.5873,13.7469,11.792,13.5475,13.8635,13.8052,0.0321,,,, ,, , ,27.0097,,27.0069,,0.7057,83.8260,,,,3.6947E+00,,1.0000E-12,,5.9536,5.9579,0.9088,110.805,3.901,3.907,,,,,,,,,,,,
CalCOFI,2101RL,040,,2101_040u,24-Jan-2021 10:27:37,24-Jan-2021 02:27:37,32.98770,-120.34970,086.7 060.0,086.7,060.0,489.000,493.059,,5.9964,,5.9974,,5.9969,34.3055,,34.3113,34.3026,,34.3046,34.3080,0.2796,,0.2925,0.3230,0.2771,,0.2923,0.3228,0.3229,12.157,12.9861,14.1480,12.051,13.9712,14.1406,14.1443,0.0327,,,, ,, , ,27.0097,,27.0073,,0.7057,83.8265,,,,3.6947E+00,,1.0000E-12,,5.9535,5.9546,0.9088,110.789,4.027,3.993,,,,,,,,,,,,
CalCOFI,2101RL,040,,2101_040u,24-Jan-2021 10:27:39,24-Jan-2021 02:27:39,32.98770,-120.34970,086.7 060.0,086.7,060.0,488.000,492.049,,6.0178,,6.0149,,6.0164,34.3015,,34.3073,34.2997,,34.3017,34.3045,0.2816,,0.2946,0.3251,0.2824,,0.2979,0.3284,0.3268,12.244,13.0772,14.2396,12.279,14.0679,14.3844,14.3120,0.0333,,,, ,, , ,27.0039,,27.0028,,0.7058,83.8237,,,,3.6947E+00,,1.0000E-12,,5.9749,5.9721,0.9088,111.350,4.058,4.070,,,,,,,,,,,,
CalCOFI,2101RL,040,,2101_040u,24-Jan-2021 10:27:40,24-Jan-2021 02:27:40,32.98770,-120.34970,086.7 060.0,086.7,060.0,487.000,491.040,,6.0359,,6.0413,,6.0386,34.2980,,34.3038,34.2941,,34.2961,34.3000,0.2837,,0.2968,0.3273,0.2902,,0.3062,0.3368,0.3321,12.338,13.1756,14.3386,12.621,14.1725,14.7502,14.5444,0.0317,,,, ,, , ,26.9988,,26.9951,,0.7055,83.8303,,,,3.6947E+00,,1.0000E-12,,5.9930,5.9984,0.9088,111.833,4.091,4.185,,,,,,,,,,,,
CalCOFI,2101RL,040,,2101_040u,24-Jan-2021 10:27:40,24-Jan-2021 02:27:40,32.98770,-120.34970,086.7 060.0,086.7,060.0,486.000,490.030,,6.0382,,6.0476,,6.0429,34.2977,,34.3035,34.2931,,34.2951,34.2993,0.2898,,0.3032,0.3337,0.2907,,0.3068,0.3373,0.3355,12.602,13.4520,14.6165,12.643,14.4660,14.7737,14.6951,0.0329,,,, ,, , ,26.9983,,26.9934,,0.7055,83.8301,,,,3.6947E+00,,1.0000E-12,,5.9954,6.0048,0.9088,111.875,4.179,4.193,,,,,,,,,,,,
CalCOFI,2101RL,040,,2101_040u,24-Jan-2021 10:27:41,24-Jan-2021 02:27:41,32.98770,-120.34970,086.7 060.0,086.7,060.0,485.000,489.021,,6.0439,,6.0520,,6.0480,34.2968,,34.3026,34.2929,,34.2949,34.2988,0.2910,,0.3045,0.3350,0.2918,,0.3079,0.3385,0.3368,12.655,13.5075,14.6723,12.687,14.5250,14.8208,14.7466,0.0331,,,, ,, , ,26.9968,,26.9927,,0.7055,83.8301,,,,3.6947E+00,,1.0000E-12,,6.0012,6.0093,0.9088,112.001,4.197,4.208,,,,,,,,,,,,
CalCOFI,2101RL,040,,2101_040u,24-Jan-2021 10:27:42,24-Jan-2021 02:27:42,32.98770,-120.34970,086.7 060.0,086.7,060.0,484.000,488.011,,6.0526,,6.0644,,6.0585,34.2959,,34.3017,34.2919,,34.2939,34.2978,0.2865,,0.2998,0.3303,0.2872,,0.3030,0.3336,0.3320,12.457,13.3002,14.4639,12.488,14.3048,14.6079,14.5359,0.0342,,,, ,, , ,26.9950,,26.9904,,0.7055,83.8301,,,,3.6947E+00,,1.0000E-12,,6.0100,6.0217,0.9088,112.171,4.132,4.144,,,,,,,,,,,,
CalCOFI,2101RL,040,,2101_040u,24-Jan-2021 10:27:43,24-Jan-2021 02:27:43,32.98771,-120.34970,086.7 060.0,086.7,060.0,483.000,487.002,,6.0625,,6.0677,,6.0651,34.2948,,34.3006,34.2913,,34.2933,34.2970,0.2869,,0.3002,0.3307,0.2856,,0.3013,0.3319,0.3313,12.475,13.3190,14.4828,12.419,14.3248,14.5341,14.5085,0.0322,,,, ,, , ,26.9929,,26.9895,,0.7055,83.8301,,,,3.6947E+00,,1.0000E-12,,6.0199,6.0251,0.9088,112.366,4.139,4.121,,,,,,,,,,,,
CalCOFI,2101RL,040,,2101_040u,24-Jan-2021 10:27:44,24-Jan-2021 02:27:44,32.98772,-120.34970,086.7 060.0,086.7,060.0,482.000,485.992,,6.0667,,6.0704,,6.0686,34.2943,,34.3001,34.2911,,34.2931,34.2966,0.2938,,0.3074,0.3379,0.2897,,0.3057,0.3362,0.3371,12.775,13.6331,14.7987,12.598,14.6584,14.7256,14.7622,0.0328,,,, ,, , ,26.9920,,26.9889,,0.7055,83.8301,,,,3.6947E+00,,1.0000E-12,,6.0242,6.0279,0.9088,112.444,4.239,4.180,,,,,,,,,,,,
CalCOFI,2101RL,040,,2101_040u,24-Jan-2021 10:27:45,24-Jan-2021 02:27:45,32.98772,-120.34970,086.7 060.0,086.7,060.0,481.000,484.983,,6.0695,,6.0703,,6.0699,34.2942,,34.3000,34.2911,,34.2931,34.2966,0.2898,,0.3032,0.3337,0.2948,,0.3111,0.3417,0.3377,12.601,13.4509,14.6155,12.822,14.4649,14.9652,14.7904,0.0332,,,, ,, , ,26.9915,,26.9890,,0.7055,83.8301,,,,3.6947E+00,,1.0000E-12,,6.0270,6.0279,0.9088,112.479,4.182,4.255,,,,,,,,,,,,
CalCOFI,2101RL,040,,2101_040u,24-Jan-2021 10:27:46,24-Jan-2021 02:27:46,32.98772,-120.34969,086.7 060.0,086.7,060.0,480.000,483.973,,6.0679,,6.0656,,6.0668,34.2937,,34.2995,34.2913,,34.2933,34.2964,0.2885,,0.3018,0.3324,0.2918,,0.3079,0.3385,0.3355,12.544,13.3913,14.5555,12.688,14.4015,14.8218,14.6887,0.0335,,,, ,, , ,26.9913,,26.9897,,0.7055,83.8301,,,,3.6947E+00,,1.0000E-12,,6.0256,6.0233,0.9088,112.483,4.162,4.210,,,,,,,,,,,,
CalCOFI,2101RL,040,,2101_040u,24-Jan-2021 10:27:48,24-Jan-2021 02:27:48,32.98772,-120.34968,086.7 060.0,086.7,060.0,479.000,482.964,,6.0694,,6.0582,,6.0638,34.2939,,34.2997,34.2923,,34.2943,34.2970,0.2920,,0.3055,0.3361,0.2960,,0.3124,0.3430,0.3396,12.700,13.5546,14.7197,12.873,14.5750,15.0197,14.8697,0.0327,,,, ,, , ,26.9913,,26.9914,,0.7055,83.8301,,,,3.6947E+00,,1.0000E-12,,6.0272,6.0160,0.9088,112.470,4.214,4.271,,,,,,,,,,,,
CalCOFI,2101RL,040,,2101_040u,24-Jan-2021 10:27:49,24-Jan-2021 02:27:49,32.98772,-120.34968,086.7 060.0,086.7,060.0,478.000,481.954,,6.0790,,6.0779,,6.0785,34.2929,,34.2987,34.2901,,34.2921,34.2954,0.2968,,0.3105,0.3411,0.2970,,0.3134,0.3440,0.3426,12.909,13.7733,14.9397,12.914,14.8074,15.0635,15.0016,0.0336,,,, ,, , ,26.9892,,26.9872,,0.7055,83.8301,,,,3.6947E+00,,1.0000E-12,,6.0369,6.0358,0.9088,112.656,4.284,4.286,,,,,,,,,,,,
CalCOFI,2101RL,040,,2101_040u,24-Jan-2021 10:27:50,24-Jan-2021 02:27:50,32.98773,-120.34968,086.7 060.0,086.7,060.0,477.000,480.945,,6.0829,,6.0852,,6.0841,34.2918,,34.2976,34.2880,,34.2900,34.2938,0.2965,,0.3102,0.3408,0.2932,,0.3094,0.3400,0.3404,12.893,13.7566,14.9229,12.749,14.7896,14.8871,14.9050,0.0325,,,, ,, , ,26.9878,,26.9845,,0.7057,83.8254,,,,3.6947E+00,,1.0000E-12,,6.0408,6.0431,0.9088,112.780,4.280,4.232,,,,,,,,,,,,
CalCOFI,2101RL,040,,2101_040u,24-Jan-2021 10:27:51,24-Jan-2021 02:27:51,32.98774,-120.34968,086.7 060.0,086.7,060.0,476.000,479.936,,6.0842,,6.0855,,6.0849,34.2904,,34.2962,34.2867,,34.2887,34.2925,0.2989,,0.3127,0.3433,0.2994,,0.3160,0.3466,0.3450,12.997,13.8655,15.0324,13.021,14.9053,15.1780,15.1052,0.0328,,,, ,, , ,26.9866,,26.9835,,0.7055,83.8292,,,,3.6947E+00,,1.0000E-12,,6.0422,6.0435,0.9088,112.884,4.314,4.322,,,,,,,,,,,,
CalCOFI,2101RL,040,,2101_040u,24-Jan-2021 10:27:52,24-Jan-2021 02:27:52,32.98774,-120.34968,086.7 060.0,086.7,060.0,475.000,478.926,,6.0841,,6.0849,,6.0845,34.2897,,34.2955,34.2860,,34.2880,34.2918,0.2964,,0.3101,0.3407,0.3038,,0.3207,0.3513,0.3460,12.890,13.7535,14.9197,13.213,14.7863,15.3833,15.1515,0.0326,,,, ,, , ,26.9860,,26.9830,,0.7055,83.8301,,,,3.6947E+00,,1.0000E-12,,6.0422,6.0430,0.9088,112.922,4.279,4.386,,,,,,,,,,,,
CalCOFI,2101RL,040,,2101_040u,24-Jan-2021 10:27:53,24-Jan-2021 02:27:53,32.98774,-120.34968,086.7 060.0,086.7,060.0,474.000,477.917,,6.0843,,6.0849,,6.0846,34.2891,,34.2949,34.2857,,34.2877,34.2913,0.3024,,0.3164,0.3470,0.3079,,0.3250,0.3557,0.3514,13.152,14.0277,15.1956,13.389,15.0776,15.5716,15.3836,0.0334,,,, ,, , ,26.9855,,26.9827,,0.7055,83.8301,,,,3.6947E+00,,1.0000E-12,,6.0425,6.0431,0.9088,112.955,4.366,4.444,,,,,,,,,,,,
CalCOFI,2101RL,040,,2101_040u,24-Jan-2021 10:27:53,24-Jan-2021 02:27:53,32.98774,-120.34966,086.7 060.0,086.7,060.0,473.000,476.907,,6.0841,,6.0846,,6.0844,34.2887,,34.2945,34.2851,,34.2871,34.2908,0.3045,,0.3186,0.3492,0.3046,,0.3215,0.3522,0.3507,13.241,14.1209,15.2893,13.247,15.1766,15.4197,15.3545,0.0320,,,, ,, , ,26.9852,,26.9823,,0.7055,83.8301,,,,3.6947E+00,,1.0000E-12,,6.0424,6.0429,0.9088,112.970,4.395,4.397,,,,,,,,,,,,
CalCOFI,2101RL,040,,2101_040u,24-Jan-2021 10:27:54,24-Jan-2021 02:27:54,32.98774,-120.34966,086.7 060.0,086.7,060.0,472.000,475.898,,6.0831,,6.0831,,6.0831,34.2879,,34.2937,34.2847,,34.2867,34.2902,0.3001,,0.3140,0.3446,0.3062,,0.3232,0.3539,0.3493,13.048,13.9188,15.0861,13.314,14.9620,15.4914,15.2888,0.0326,,,, ,, , ,26.9847,,26.9822,,0.7055,83.8301,,,,3.6947E+00,,1.0000E-12,,6.0415,6.0414,0.9088,113.002,4.331,4.419,,,,,,,,,,,,
CalCOFI,2101RL,040,,2101_040u,24-Jan-2021 10:27:55,24-Jan-2021 02:27:55,32.98774,-120.34966,086.7 060.0,086.7,060.0,471.000,474.888,,6.0758,,6.0717,,6.0738,34.2861,,34.2919,34.2820,,34.2840,34.2880,0.2996,,0.3135,0.3440,0.3091,,0.3263,0.3570,0.3505,13.031,13.9011,15.0682,13.442,14.9431,15.6283,15.3483,0.0327,,,, ,, , ,26.9842,,26.9815,,0.7057,83.8265,,,,3.6947E+00,,1.0000E-12,,6.0343,6.0302,0.9088,113.028,4.325,4.460,,,,,,,,,,,,
CalCOFI,2101RL,040,,2101_040u,24-Jan-2021 10:27:56,24-Jan-2021 02:27:56,32.98774,-120.34967,086.7 060.0,086.7,060.0,470.000,473.879,,6.0756,,6.0760,,6.0758,34.2865,,34.2923,34.2834,,34.2854,34.2889,0.2996,,0.3135,0.3440,0.3012,,0.3179,0.3485,0.3463,13.027,13.8969,15.0640,13.099,14.9386,15.2614,15.1627,0.0331,,,, ,, , ,26.9845,,26.9820,,0.7063,83.8131,,,,3.5710E+00,,1.0000E-12,,6.0342,6.0346,0.9088,112.984,4.323,4.347,,,,,,,,,,,,
CalCOFI,2101RL,040,,2101_040u,24-Jan-2021 10:27:58,24-Jan-2021 02:27:58,32.98774,-120.34968,086.7 060.0,086.7,060.0,469.000,472.870,,6.0777,,6.0778,,6.0778,34.2871,,34.2929,34.2841,,34.2861,34.2895,0.3100,,0.3243,0.3550,0.3055,,0.3225,0.3531,0.3541,13.483,14.3742,15.5441,13.285,15.4457,15.4603,15.5022,0.0323,,,, ,, , ,26.9847,,26.9823,,0.7066,83.8076,,,,3.7013E+00,,1.0000E-12,,6.0364,6.0365,0.9088,112.953,4.474,4.409,,,,,,,,,,,,